Location: Marstown
(39.5056°N, 77.0820°W)
Time: 07:34:20
(UTC-04:00)

OTV 5 (USA 277) - Visible Passes

Search period start: 26 April 2018 00:00
Search period end: 06 May 2018 00:00
Orbit: 308 x 325 km, 54.5° (Epoch: 25 April)

Date Brightness Start Highest point End Pass type
(mag) Time Alt. Az. Time Alt. Az. Time Alt. Az.
01 May ? 21:49:05 10° N 21:50:52 16° NNE 21:50:52 16° NNE visible
02 May ? 22:02:52 10° NNW 22:04:37 28° N 22:04:37 28° N visible
03 May ? 20:44:02 10° N 20:45:05 12° NNE 20:46:07 10° NE visible
03 May ? 22:17:02 10° NW 22:18:25 26° NW 22:18:25 26° NW visible
04 May ? 20:57:25 10° NNW 20:59:38 22° NE 21:01:23 13° E visible
04 May ? 22:31:43 10° WNW 22:32:14 13° W 22:32:14 13° W visible
05 May ? 21:11:20 10° NW 21:14:01 59° NE 21:15:14 27° ESE visible
